Time,TemperatureF,DewpointF,PressureIn,WindDirection,WindDirectionDegrees,WindSpeedMPH,WindSpeedGustMPH,Humidity,HourlyPrecipIn,Conditions,Clouds,dailyrainin,SoftwareType,DateUTC
2016-08-31 00:00:00,68.0,-99.9,-100.00,NE,50,7.0,11.0,-999,-99.99,,,-99.99,,2016-08-31 07:00:00,
2016-08-31 00:57:00,68.0,-99.9,-100.00,NE,50,7.0,11.0,-999,-99.99,,,-99.99,,2016-08-31 07:57:00,
2016-08-31 01:00:00,68.0,-99.9,-100.00,SE,130,1.0,5.0,-999,-99.99,,,-99.99,,2016-08-31 08:00:00,
2016-08-31 01:47:00,68.0,-99.9,-100.00,SE,130,1.0,5.0,-999,-99.99,,,-99.99,,2016-08-31 08:47:00,
2016-08-31 01:55:00,68.0,-99.9,-100.00,SE,130,1.0,5.0,-999,-99.99,,,-99.99,,2016-08-31 08:55:00,
2016-08-31 02:00:00,68.0,-99.9,-100.00,ENE,57,5.0,12.0,-999,-99.99,,,-99.99,,2016-08-31 09:00:00,
2016-08-31 03:00:00,66.0,-99.9,-100.00,East,84,8.0,14.0,-999,-99.99,,,-99.99,,2016-08-31 10:00:00,
2016-08-31 04:00:00,66.0,-99.9,-100.00,SE,133,3.0,8.0,-999,-99.99,,,-99.99,,2016-08-31 11:00:00,
2016-08-31 05:00:00,64.0,-99.9,-100.00,NE,36,6.0,8.0,-999,-99.99,,,-99.99,,2016-08-31 12:00:00,
2016-08-31 05:57:00,64.0,-99.9,-100.00,NE,36,6.0,8.0,-999,-99.99,,,-99.99,,2016-08-31 12:57:00,
2016-08-31 06:00:00,66.0,-99.9,-100.00,East,85,5.0,9.0,-999,-99.99,,,-99.99,,2016-08-31 13:00:00,
2016-08-31 06:52:00,66.0,-99.9,-100.00,East,85,5.0,9.0,-999,-99.99,,,-99.99,,2016-08-31 13:52:00,
2016-08-31 07:00:00,64.0,-99.9,-100.00,ESE,118,2.0,6.0,-999,-99.99,,,-99.99,,2016-08-31 14:00:00,
2016-08-31 07:55:00,64.0,-99.9,-100.00,ESE,118,2.0,6.0,-999,-99.99,,,-99.99,,2016-08-31 14:55:00,
2016-08-31 08:00:00,64.0,-99.9,-100.00,NW,313,4.0,7.0,-999,-99.99,,,-99.99,,2016-08-31 15:00:00,
2016-08-31 08:47:00,64.0,-99.9,-100.00,NW,313,4.0,7.0,-999,-99.99,,,-99.99,,2016-08-31 15:47:00,
2016-08-31 09:58:00,69.0,-99.9,-100.00,ESE,118,4.0,9.0,-999,-99.99,,,-99.99,,2016-08-31 16:58:00,
2016-08-31 10:00:00,73.0,-99.9,-100.00,SE,132,9.0,13.0,-999,-99.99,,,-99.99,,2016-08-31 17:00:00,
2016-08-31 11:00:00,77.0,-99.9,-100.00,ENE,70,3.0,15.0,-999,-99.99,,,-99.99,,2016-08-31 18:00:00,
2016-08-31 12:00:00,78.0,-99.9,-100.00,ESE,113,10.0,15.0,-999,-99.99,,,-99.99,,2016-08-31 19:00:00,
2016-08-31 12:50:00,78.0,-99.9,-100.00,ESE,113,10.0,15.0,-999,-99.99,,,-99.99,,2016-08-31 19:50:00,
2016-08-31 13:00:00,80.0,-99.9,-100.00,SE,146,5.0,22.0,-999,-99.99,,,-99.99,,2016-08-31 20:00:00,